Tracking 19795 objects as of 18-Jul-2019
HD Live streaming from Space Station
objects crossing your sky now

CZ-4 DEB

Track CZ-4 DEB now!
10-day predictions


NORAD ID: 26162
Int'l Code: 1999-057AY
Perigee: 684.0 km
Apogee: 1,092.1 km
Inclination: 99.2 °
Period: 102.6 minutes
Semi major axis: 7259 km
RCS: 0.1866 m2 (medium)
Launch date: October 14, 1999
Source: People's Republic of China (PRC)
Launch site: Taiyaun Space Center, China (TSC)

Note: This is SATELLITE DEBRIS
aabbcc
Your satellite tracking list
Your tracking list is empty




NASA's NSSDC Master Catalog

Two Line Element Set (TLE):
1 26162U 99057AY  19198.95146092 +.00000308 +00000-0 +15918-3 0  9999
2 26162 099.1843 181.7487 0281069 171.3743 189.2403 14.03728770987179
Source of the keplerian elements: AFSPC